Regional Weather Roundup
Issued by NWS

Home | Current Version | Previous Version | Text Only | Print | Product List | Glossary On
Versions: 1 2 3 4 5 6 7 8 9 10 11 12 13 14 15 16 17 18 19 20 21 22 23 24 25 26 27 28 29 30 31 32 33 34 35 36 37 38 39 40 41 42 43 44 45 46 47 48 49 50
000
ASUS43 KTOP 221059
RWRKS

WEATHER ROUNDUP FOR KANSAS
NATIONAL WEATHER SERVICE GOODLAND KS
500 AM CST SAT NOV 22 2014

NOTE:  "FAIR" INDICATES FEW OR NO CLOUDS BELOW 12,000 FEET WITH NO
SIGNIFICANT WEATHER AND/OR OBSTRUCTIONS TO VISIBILITY.

KSZ001>006-013>018-027>032-041>047-221200-
NORTHWEST KANSAS

CITY           SKY/WX    TMP DP  RH WIND       PRES   REMARKS
GOODLAND       CLEAR     38  20  48 SW12      29.89F WCI  30
HAYS           CLOUDY    34  28  80 S10       29.92F VSB 1/4 WCI  26
HILL CITY      CLEAR     28  25  88 W5        29.89F
RUSSELL        FOG       36  36 100 S16       29.92F VSB 1/2 WCI  26
$$

KSZ061>065-074>080-084>089-221200-
SOUTHWEST KANSAS

CITY           SKY/WX    TMP DP  RH WIND       PRES   REMARKS
DODGE CITY     PTCLDY    34  31  88 S13       29.94F WCI  25
ELKHART          N/A    N/A N/A N/A MISG        N/A
GARDEN CITY    CLEAR     28  27  96 S7        29.92F FOG
GREAT BEND     CLOUDY    36  30  80 S7        29.95F VSB 1/2
LIBERAL        CLEAR     34  27  75 S8        29.95F
$$

KSZ066>073-081>083-090>101-221200-
SOUTHEAST KANSAS

CITY           SKY/WX    TMP DP  RH WIND       PRES   REMARKS
CHANUTE        CLOUDY    55  54  96 S15       30.02F FOG
COFFEYVILLE    CLOUDY    56  53  90 S16       30.03F
HUTCHINSON     CLOUDY    42  40  92 S7        29.97F FOG
MEDICINE LODGE   N/A     42  41  96 CALM      29.97F
NEWTON         CLOUDY    43  37  81 S7        29.99F
PARSONS        CLOUDY    56  54  93 S9G20     30.03F
WICHITA INTL   CLOUDY    45  44  97 S3        29.98F FOG
WICHITA JABRA  CLOUDY    44  43  96 S6        29.98F FOG
WICHITA MCCONL CLOUDY    43  43 100 SE5       29.99F FOG
WINFIELD       FOG       46  46 100 CALM      30.00F VSB 1/2
$$

KSZ007>012-019>026-033>040-048>060-102>105-221200-
NORTHEAST KANSAS

CITY           SKY/WX    TMP DP  RH WIND       PRES   REMARKS
CONCORDIA      FOG       38  38 100 S12       29.93F VSB 1/2 WCI  30
EMPORIA        FOG       48  48 100 S6        29.99F VSB 1/2
LAWRENCE       FOG       46  45  96 NW5       29.99F VSB 1
MANHATTAN      CLOUDY    42  41  96 SW9       29.97S FOG
OLATHE IND     CLOUDY    52  52 100 S10       30.00S FOG
OLATHE EXE     FOG       51  51 100 S6        29.99S VSB 1/2
SALINA         CLOUDY    41  39  93 S8        29.97F FOG
TOPEKA BILLARD FOG       42  41  96 CALM      29.99F VSB 3/4
TOPEKA FORBES  FOG       49  48  97 S8        29.98F VSB 1
$$


USA.gov is the U.S. government's official web portal to all federal, state and local government web resources and services.